Content
SEND FEEDBACK

Daily
Averages
Monthly
Summary
United States of America

OZARK, MISSOURI


Home > North America > United States > Missouri
Elevation: 1178 feet     Latitude: 37 01N     Longitude: 093 13W

WEATHER
 
SELECT A DAY
Number of Records: 205,547;   Date Range: 1/1/95 - 9/18/14
 
SHARE

PRINT THIS DATA

[ ← Previous Day ]
WEATHER ALMANAC - JANUARY 7, 2013
[ Next Day → ]
[ °C ]   °F
Weather ElementAverageHighLow
Temperature36.1 °F50 °F (2:52 pm)23 °F (1:52 am)
Dewpoint22.8 °F26.1 °F (4:52 pm)17.1 °F (1:52 am)
Humidity60.2 %78 % (1:52 am)38 % (2:52 pm)
Barometer30.25 in30.37 in (1:52 am)30.13 in (11:52 pm)
Wind Speed11.1 mph16.1 mph (10:52 am)
Weather ElementAverage
Visibility9.8 mi
Wind DirectionSSE (162.2 °)

Weather ElementTotal
Precipitation---
Heating Degree Days28.5 (Base 65)
Averaged from 23 records on January 7, 2013
WEATHER CONDITIONS BREAKOUT
WIND DIRECTION BREAKOUT
WEATHER BY HOUR - JANUARY 7, 2013
[ °C ]   °F
Local TimeTemperatureDewpointHumidityBarometerVisibilityWind DirectionWind SpeedGust SpeedPrecipitationEventsConditions
1:52 AM23.0 °F17.1 °F78 %30.37 in8.0 miSSE (160°)6.9 mphClear
2:52 AM24.1 °F18.0 °F77 %30.35 in8.0 miSSE (150°)9.2 mphClear
3:52 AM24.1 °F18.0 °F77 %30.33 in10.0 miSE (140°)11.5 mphClear
4:52 AM28.0 °F19.0 °F69 %30.31 in10.0 miSSE (150°)12.7 mphClear
5:52 AM26.1 °F19.0 °F75 %30.32 in10.0 miSSE (160°)11.5 mphClear
6:52 AM25.0 °F19.0 °F78 %30.34 in10.0 miSSE (150°)11.5 mphClear
7:52 AM27.0 °F19.9 °F75 %30.35 in10.0 miSSE (150°)13.8 mphClear
8:52 AM33.1 °F23.0 °F66 %30.35 in10.0 miSSE (150°)13.8 mphClear
9:52 AM37.0 °F24.1 °F59 %30.35 in10.0 miSSE (160°)15.0 mphClear
10:52 AM42.1 °F24.1 °F49 %30.31 in10.0 miSSE (160°)16.1 mphClear
11:52 AM45.0 °F24.1 °F44 %30.29 in10.0 miSouth (180°)15.0 mphClear
12:52 PM46.9 °F25.0 °F42 %30.25 in10.0 miSSW (210°)11.5 mphClear
1:52 PM48.0 °F25.0 °F41 %30.21 in10.0 miSouth (190°)10.4 mphClear
2:52 PM50.0 °F25.0 °F38 %30.20 in10.0 miSouth (190°)9.2 mphClear
3:52 PM48.9 °F25.0 °F39 %30.19 in10.0 miSouth (170°)10.4 mphClear
4:52 PM44.1 °F26.1 °F49 %30.19 in10.0 miSSE (160°)9.2 mphClear
5:52 PM37.9 °F25.0 °F60 %30.18 in10.0 miSSE (150°)8.1 mphClear
6:52 PM37.0 °F24.1 °F59 %30.17 in10.0 miSSE (160°)9.2 mphClear
7:52 PM37.0 °F25.0 °F62 %30.17 in10.0 miSSE (150°)9.2 mphClear
8:52 PM37.9 °F25.0 °F60 %30.16 in10.0 miSSE (160°)9.2 mphClear
9:52 PM37.0 °F25.0 °F62 %30.14 in10.0 miSSE (160°)10.4 mphClear
10:52 PM36.0 °F24.1 °F62 %30.14 in10.0 miSSE (160°)9.2 mphClear
11:52 PM35.1 °F24.1 °F64 %30.13 in10.0 miSSE (160°)11.5 mphClear
Hourly data recorded from KSGF, located miles away from Ozark, Missouri







STORIES FROM OUR PARTNERS